Flag for U.S.A. Weather past 2 weeks in Fairbanks, Alaska, U.S.A.

Now
48 °F

Broken clouds.


Feels Like: 46 °F
Forecast: 14 / 35 °F
Wind: 6 mph from Southwest

Location: Wainwright U. S. Army Airfield

Current Time: Mar 30, 2015 at 6:21:21 PM

Latest Report: Mar 30, 2015 at 4:55 PM


Visibility: 25 mi

Pressure: 29.55 "Hg

Humidity: 34%

Dew point: 21 °F

Location of FairbanksLocation

Historic Weather in Fairbanks — Graph

°F

Fairbanks temperature yesterday

Maximum temperature yesterday: 45 °F (at 4:56 PM)
Minimum temperature yesterday: 17 °F (at 6:56 AM)
Average temperature yesterday: 33 °F

Past Weeks' High & Low Weather Summary

 TemperatureHumidityPressure
High48 °F (Mar 20, 3:55 PM)93% (Mar 17, 9:55 AM)30.03 "Hg (Mar 17, 9:55 AM)
Low-4 °F (Mar 16, 12:56 AM)24% (Mar 16, 8:55 PM)29.32 "Hg (Mar 26, 4:55 PM)
Average26 °F63%29.72 "Hg
* Reported Mar 15 4:56 PM — Mar 30 4:55 PM, Fairbanks, Weather by CustomWeather, © 2015

Note: Actual official high and low records may vary slightly from our data, if they occured in-between our weather recording intervals... More about our weather records

Advertising

Fairbanks weather history for previous 24 hours

 ConditionsComfort  
Time TempWeatherWind HumidityBarometerVisibility
4:55 PM
Mon, Mar 30
48 °FBroken clouds.6 mph34%29.55 "Hg25 mi
3:55 PM43 °FBroken clouds.7 mph53%29.57 "Hg25 mi
2:55 PM45 °FBroken clouds.No wind39%29.57 "Hg25 mi
1:55 PM43 °FScattered clouds.6 mph46%29.59 "Hg25 mi
12:55 PM43 °FScattered clouds.5 mph46%29.59 "Hg25 mi
11:55 AM43 °FScattered clouds.No wind42%29.58 "Hg25 mi
10:55 AM34 °FScattered clouds.2 mph56%29.58 "Hg25 mi
9:55 AM30 °FScattered clouds.No wind64%29.58 "Hg25 mi
8:55 AM27 °FScattered clouds.5 mph74%29.58 "Hg25 mi
7:55 AM25 °FPassing clouds.9 mph74%29.56 "Hg25 mi
6:55 AM16 °FPassing clouds.3 mph93%29.56 "Hg10 mi
5:56 AM19 °FClear.3 mph85%29.55 "Hg10 mi
4:56 AM19 °FClear.No wind85%29.54 "Hg10 mi
3:56 AM23 °FClear.No wind74%29.53 "Hg10 mi
2:56 AM26 °FClear.No wind74%29.52 "Hg10 mi
1:56 AM22 °FClear.No wind78%29.51 "Hg10 mi
12:56 AM22 °FClear.No wind82%29.49 "Hg10 mi
11:56 PM
Sun, Mar 29
31 °FPassing clouds.No wind64%29.47 "Hg10 mi
10:56 PM35 °FOvercast.10 mph56%29.45 "Hg10 mi
9:56 PM30 °FClear.No wind69%29.44 "Hg10 mi
8:56 PM31 °FSunny.No wind69%29.43 "Hg10 mi
7:56 PM41 °FPartly sunny.No wind47%29.42 "Hg10 mi
6:56 PM45 °FSunny.No wind38%29.41 "Hg10 mi
Weather by CustomWeather, © 2015

See weather overviewHow to use our weather pages